Retour au catalogue

FENGYUN 1C DEB

ActifSSO
NORAD 30662·DEBRIS·🇨🇳 China

Lancé May 10, 1999 depuis Taiyuan Satellite Launch Center

Loading…

Prochains Passages (prochaines 24 heures)

TLE

FraisSource: Space-Track

Époque: Sep 14, 2026, 03:18 UTC

1 30662U 99025APU 26257.13794336  .00001775  00000-0  79166-3 0  9992
2 30662  99.0334 325.7960 0033536 200.0375 190.2736 14.23800912  5481

Suivez FENGYUN 1C DEB en temps réel avec AllMySat

Download on the App Store